EA8CHC Sevilla ES current weather conditions

sailwx.info

Wind from 248 at 1 knots gusting 3

Air temperature 28.3° C
Dewpoint 19.5° C

Last reported at 2015-Jul-31 08:52 UTC.
Time now 2015-Jul-31 09:28 UTC

Location: N 37°26' W 006°03'.
View on Google Maps.

See reports from other nearby stations

  
Tides and Currents Weather Stations Pressure Air Temp Water Temp Dewpoint Dewpoint Depression Visibility Wind Speed Wind Dir Waves Ship Positions
date/time (UTC)wind fromknots sea level pressurealtimeterstation pressurevisibilityair tempwater tempwave heightnotes
2015-Jul-31 08:52 248 1 gusting 3 28.3
2015-Jul-31 08:47 211 0 gusting 3 28.3
2015-Jul-31 08:42 121 28.3
2015-Jul-31 08:37 092 0 gusting 6 27.8
2015-Jul-31 08:32 128 1 gusting 3 27.8
2015-Jul-31 08:27 136 0 gusting 3 27.8
2015-Jul-31 08:22 269 27.8
2015-Jul-31 08:17 268 27.2
2015-Jul-31 08:12 279 0 gusting 2 27.2
2015-Jul-31 08:07 278 0 gusting 2 27.2
2015-Jul-31 08:02 333 0 gusting 2 26.7
2015-Jul-31 07:57 331 26.7
2015-Jul-31 07:52 331 26.7
2015-Jul-31 07:47 331 26.1
2015-Jul-31 07:42 331 0 gusting 3 26.1
2015-Jul-31 07:37 321 0 gusting 2 26.1
2015-Jul-31 07:32 342 26.1
2015-Jul-31 07:27 128 25.6
2015-Jul-31 07:22 128 25.6
2015-Jul-31 07:17 129 0 gusting 3 25.6
2015-Jul-31 07:12 129 0 gusting 4 25.6
2015-Jul-31 07:07 139 0 gusting 4 25.6
2015-Jul-31 07:02 153 0 gusting 5 25.6
2015-Jul-31 06:57 154 1 gusting 5 25.6
2015-Jul-31 06:52 121 1 gusting 0 25.6
2015-Jul-31 06:47 142 25.6
2015-Jul-31 06:42 267 25.6
2015-Jul-31 06:37 267 25.0
2015-Jul-31 06:32 267 24.4
2015-Jul-31 06:27 267 24.4
2015-Jul-31 06:22 267 24.4
2015-Jul-31 06:17 267 24.4
2015-Jul-31 06:12 267 23.9
2015-Jul-31 06:07 267 23.9
2015-Jul-31 06:02 267 23.9
2015-Jul-31 05:57 267 23.9
2015-Jul-31 05:52 267 23.9
2015-Jul-31 05:47 267 0 gusting 3 23.9
2015-Jul-31 05:42 267 1 gusting 4 23.9
2015-Jul-31 05:37 267 1 gusting 4 23.9
2015-Jul-31 05:32 267 1 gusting 4 23.9
2015-Jul-31 05:27 267 0 gusting 4 23.3
2015-Jul-31 05:22 267 1 gusting 5 23.9
2015-Jul-31 05:17 273 2 gusting 5 23.3
2015-Jul-31 05:12 277 2 gusting 4 23.3
2015-Jul-31 05:07 280 2 gusting 4 23.3
2015-Jul-31 05:02 295 1 gusting 5 23.3
2015-Jul-31 04:57 278 2 gusting 5 23.3
2015-Jul-31 04:52 275 2 gusting 5 23.3
2015-Jul-31 04:47 279 2 gusting 5 23.9
2015-Jul-31 04:42 288 2 gusting 3 23.9
2015-Jul-31 04:37 273 0 gusting 2 24.4
2015-Jul-31 04:32 255 24.4
2015-Jul-31 04:27 257 0 gusting 2 24.4
2015-Jul-31 04:22 254 0 gusting 2 24.4
2015-Jul-31 04:17 254 24.4
2015-Jul-31 04:12 217 24.4
2015-Jul-31 04:07 218 24.4
2015-Jul-31 04:02 217 24.4
2015-Jul-31 03:57 217 24.4
2015-Jul-31 03:52 217 24.4
2015-Jul-31 03:47 217 24.4
2015-Jul-31 03:42 217 24.4
2015-Jul-31 03:37 217 24.4
2015-Jul-31 03:32 217 0 gusting 2 24.4
2015-Jul-31 03:27 217 0 gusting 2 24.4
2015-Jul-31 03:22 218 0 gusting 2 24.4
2015-Jul-31 03:17 217 0 gusting 2 25.0
2015-Jul-31 03:12 217 25.0
2015-Jul-31 03:07 275 25.0
2015-Jul-31 03:02 275 24.4
2015-Jul-31 02:57 275 24.4
2015-Jul-31 02:52 275 0 gusting 3 24.4
2015-Jul-31 02:47 274 1 gusting 3 24.4
2015-Jul-31 02:42 053 0 gusting 3 24.4
2015-Jul-31 02:37 053 0 gusting 3 24.4
2015-Jul-31 02:32 120 24.4
2015-Jul-31 02:27 120 24.4
2015-Jul-31 02:22 120 24.4
2015-Jul-31 02:17 120 24.4
2015-Jul-31 02:12 120 24.4
2015-Jul-31 02:07 120 24.4
2015-Jul-31 02:02 120 24.4
2015-Jul-31 01:57 120 24.4
2015-Jul-31 01:52 120 25.0
2015-Jul-31 01:47 120 25.0
2015-Jul-31 01:42 120 25.0
2015-Jul-31 01:37 120 25.0
2015-Jul-31 01:32 120 25.0
2015-Jul-31 01:27 120 25.0
2015-Jul-31 01:22 120 25.0
2015-Jul-31 01:17 120 1 gusting 4 25.0
2015-Jul-31 01:12 120 1 gusting 3 25.0
2015-Jul-31 01:07 121 0 gusting 3 25.6
2015-Jul-31 01:02 138 0 gusting 3 25.6
2015-Jul-31 00:57 138 0 gusting 3 25.6
2015-Jul-31 00:52 138 0 gusting 3 25.6
2015-Jul-31 00:47 138 25.6
2015-Jul-31 00:42 138 0 gusting 3 25.6
2015-Jul-31 00:37 138 0 gusting 1 26.1
2015-Jul-31 00:32 137 26.1
2015-Jul-31 00:27 136 26.1
2015-Jul-31 00:22 136 26.1
2015-Jul-31 00:17 136 26.1
2015-Jul-31 00:12 139 0 gusting 3 26.1
2015-Jul-31 00:07 140 0 gusting 3 26.1
2015-Jul-31 00:02 149 0 gusting 3 26.7
2015-Jul-30 23:57 149 0 gusting 3 26.7
2015-Jul-30 23:52 160 26.7
2015-Jul-30 23:47 161 26.7
2015-Jul-30 23:42 161 26.7
2015-Jul-30 23:37 160 0 gusting 4 26.7
2015-Jul-30 23:32 160 0 gusting 4 26.7
2015-Jul-30 23:27 163 0 gusting 4 26.7
2015-Jul-30 23:22 094 0 gusting 6 27.2
2015-Jul-30 23:17 197 27.8
2015-Jul-30 23:12 198 0 gusting 6 27.8
2015-Jul-30 23:07 198 1 gusting 6 27.8
2015-Jul-30 23:02 211 2 gusting 5 27.8
2015-Jul-30 22:57 190 2 gusting 5 27.8
2015-Jul-30 22:52 203 0 gusting 6 27.8
2015-Jul-30 22:47 183 1 gusting 6 27.8
2015-Jul-30 22:42 140 0 gusting 4 27.8
2015-Jul-30 22:37 231 0 gusting 6 27.8
2015-Jul-30 22:32 196 0 gusting 9 27.2
2015-Jul-30 22:27 235 2 gusting 9 27.2
2015-Jul-30 22:22 173 4 gusting 9 27.2
2015-Jul-30 22:17 161 5 gusting 9 27.8
2015-Jul-30 22:12 150 2 gusting 7 28.3
2015-Jul-30 22:07 188 0 gusting 7 28.3
2015-Jul-30 22:02 196 2 gusting 7 28.3
2015-Jul-30 21:57 221 3 gusting 7 28.3
2015-Jul-30 21:52 205 1 gusting 4 28.3
2015-Jul-30 21:47 080 27.8
2015-Jul-30 21:42 088 1 gusting 4 27.8
2015-Jul-30 21:37 090 1 gusting 4 27.8
2015-Jul-30 21:32 090 0 gusting 6 28.3
2015-Jul-30 21:27 103 0 gusting 6 28.3
2015-Jul-30 21:22 138 0 gusting 6 28.3
2015-Jul-30 21:17 096 2 gusting 6 28.3
2015-Jul-30 21:12 134 3 gusting 10 28.9
2015-Jul-30 21:07 131 2 gusting 10 29.4
2015-Jul-30 21:02 148 3 gusting 8 29.4
2015-Jul-30 20:57 200 3 gusting 8 29.4
2015-Jul-30 20:52 194 3 gusting 9 29.4
2015-Jul-30 20:47 217 3 gusting 9 29.4
2015-Jul-30 20:42 193 4 gusting 10 30.0
2015-Jul-30 20:37 231 6 gusting 10 30.0
2015-Jul-30 20:32 237 6 gusting 13 30.0
2015-Jul-30 20:27 259 5 gusting 13 30.0
2015-Jul-30 20:22 240 6 gusting 13 30.0
2015-Jul-30 20:17 252 6 gusting 13 30.0
2015-Jul-30 20:12 242 5 gusting 13 30.0
2015-Jul-30 20:07 246 6 gusting 13 30.0
2015-Jul-30 20:02 236 6 gusting 13 30.0
2015-Jul-30 19:57 252 5 gusting 13 30.0
2015-Jul-30 19:52 232 5 gusting 13 30.0
2015-Jul-30 19:47 245 6 gusting 13 30.0
2015-Jul-30 19:42 294 5 gusting 13 30.6
2015-Jul-30 19:37 243 5 gusting 13 30.6
2015-Jul-30 19:32 242 6 gusting 14 30.6
2015-Jul-30 19:27 211 6 gusting 14 30.6
2015-Jul-30 19:22 272 6 gusting 14 30.6
2015-Jul-30 19:17 240 6 gusting 14 31.1
2015-Jul-30 19:12 296 6 gusting 16 31.1
2015-Jul-30 19:07 196 6 gusting 16 31.1
2015-Jul-30 19:02 258 8 gusting 17 31.1
2015-Jul-30 18:57 245 9 gusting 17 31.7
2015-Jul-30 18:52 244 8 gusting 17 31.7
2015-Jul-30 18:47 238 8 gusting 17 31.7
2015-Jul-30 18:42 236 7 gusting 14 31.7
2015-Jul-30 18:37 251 7 gusting 14 32.2
2015-Jul-30 18:32 224 7 gusting 16 32.2
2015-Jul-30 18:27 219 7 gusting 16 32.2
2015-Jul-30 18:22 202 7 gusting 16 32.8
2015-Jul-30 18:17 213 7 gusting 15 32.8
2015-Jul-30 18:12 224 8 gusting 17 32.8
2015-Jul-30 18:07 224 7 gusting 17 32.8
2015-Jul-30 18:02 217 7 gusting 17 33.3
2015-Jul-30 17:57 242 9 gusting 17 32.8
2015-Jul-30 17:52 220 8 gusting 14 33.3
2015-Jul-30 17:47 248 7 gusting 14 33.3
2015-Jul-30 17:42 224 8 gusting 18 33.3
2015-Jul-30 17:37 228 9 gusting 18 33.3
2015-Jul-30 17:32 257 9 gusting 16 33.3
2015-Jul-30 17:27 186 9 gusting 16 33.3
2015-Jul-30 17:22 217 9 gusting 16 33.9
2015-Jul-30 17:17 244 9 gusting 16 33.9
2015-Jul-30 17:12 246 9 gusting 19 33.9
2015-Jul-30 17:07 195 9 gusting 19 33.3
2015-Jul-30 17:02 228 9 gusting 20 33.9
2015-Jul-30 16:57 215 9 gusting 20 33.3
2015-Jul-30 16:52 185 9 gusting 19 33.3
2015-Jul-30 16:47 208 10 gusting 19 33.9
2015-Jul-30 16:42 185 10 gusting 19 33.3
2015-Jul-30 16:37 199 10 gusting 19 33.3
2015-Jul-30 16:32 189 11 gusting 21 33.3
2015-Jul-30 16:27 184 10 gusting 21 33.3
2015-Jul-30 16:22 200 10 gusting 21 33.3
2015-Jul-30 16:17 211 11 gusting 21 32.8
2015-Jul-30 16:12 194 10 gusting 20 32.8
2015-Jul-30 16:07 194 10 gusting 20 33.3
2015-Jul-30 16:02 186 11 gusting 20 32.8
2015-Jul-30 15:57 189 11 gusting 20 33.3
2015-Jul-30 15:52 163 11 gusting 23 33.3
2015-Jul-30 15:47 160 12 gusting 23 32.8
2015-Jul-30 15:42 130 13 gusting 22 32.8
2015-Jul-30 15:37 223 13 gusting 22 32.8
2015-Jul-30 15:32 235 13 gusting 22 32.8
2015-Jul-30 15:27 196 12 gusting 22 33.3
2015-Jul-30 15:22 209 12 gusting 20 33.3
2015-Jul-30 15:17 210 12 gusting 20 33.3
2015-Jul-30 15:12 195 12 gusting 21 33.3
2015-Jul-30 15:07 153 12 gusting 21 33.3
2015-Jul-30 15:02 176 12 gusting 20 33.3
2015-Jul-30 14:57 167 11 gusting 20 33.3
2015-Jul-30 14:52 171 10 gusting 20 33.9
2015-Jul-30 14:47 213 11 gusting 20 33.9
2015-Jul-30 14:42 194 11 gusting 18 33.9
2015-Jul-30 14:37 219 11 gusting 18 33.9
2015-Jul-30 14:32 188 11 gusting 19 33.9
2015-Jul-30 14:27 268 10 gusting 19 33.9
2015-Jul-30 14:22 198 10 gusting 19 33.9
2015-Jul-30 14:17 180 10 gusting 19 34.4
2015-Jul-30 14:12 153 10 gusting 19 34.4
2015-Jul-30 14:07 165 10 gusting 19 34.4
2015-Jul-30 14:02 192 9 gusting 19 33.9
2015-Jul-30 13:57 194 9 gusting 19 33.9
2015-Jul-30 13:52 157 8 gusting 15 34.4
2015-Jul-30 13:47 185 8 gusting 15 33.9
2015-Jul-30 13:42 214 8 gusting 18 33.9
2015-Jul-30 13:37 175 9 gusting 18 33.9
2015-Jul-30 13:32 157 8 gusting 18 33.9
2015-Jul-30 13:27 225 7 gusting 18 33.9
2015-Jul-30 13:22 168 7 gusting 18 33.9
2015-Jul-30 13:17 152 8 gusting 18 33.3
2015-Jul-30 13:12 173 7 gusting 14 33.3
2015-Jul-30 13:07 133 6 gusting 14 33.3
2015-Jul-30 13:02 157 7 gusting 19 33.3
2015-Jul-30 12:57 194 6 gusting 19 33.3
2015-Jul-30 12:52 171 7 gusting 19 33.3
2015-Jul-30 12:47 167 9 gusting 19 33.3
2015-Jul-30 12:42 173 8 gusting 16 33.3
2015-Jul-30 12:37 182 8 gusting 16 33.3
2015-Jul-30 12:32 146 8 gusting 15 32.8
2015-Jul-30 12:27 094 8 gusting 15 32.8
2015-Jul-30 12:22 166 7 gusting 14 32.8
2015-Jul-30 12:17 150 6 gusting 13 32.8
2015-Jul-30 12:12 167 6 gusting 7 33.3
2015-Jul-30 12:07 157 4 gusting 7 33.3
2015-Jul-30 12:02 191 1 gusting 6 33.3
2015-Jul-30 11:57 199 1 gusting 6 33.3
2015-Jul-30 11:52 225 2 gusting 8 33.3
2015-Jul-30 11:47 273 2 gusting 8 33.3
2015-Jul-30 11:42 145 2 gusting 4 32.8
2015-Jul-30 11:37 196 0 gusting 4 32.8
2015-Jul-30 11:32 036 0 gusting 8 32.2
2015-Jul-30 11:27 304 2 gusting 8 32.2
2015-Jul-30 11:22 300 4 gusting 9 32.2
2015-Jul-30 11:17 288 4 gusting 9 32.2
2015-Jul-30 11:12 263 3 gusting 10 32.2
2015-Jul-30 11:07 304 3 gusting 10 32.2
2015-Jul-30 11:02 149 3 gusting 9 31.7
2015-Jul-30 10:57 234 2 gusting 9 31.7
2015-Jul-30 10:52 067 4 gusting 9 31.1
2015-Jul-30 10:47 103 3 gusting 9 31.1
2015-Jul-30 10:42 094 2 gusting 10 30.6
2015-Jul-30 10:37 013 3 gusting 10 30.6
2015-Jul-30 10:32 128 4 gusting 11 30.6
2015-Jul-30 10:27 086 5 gusting 11 30.6
2015-Jul-30 10:22 084 6 gusting 11 30.0
2015-Jul-30 10:17 116 5 gusting 11 30.0
2015-Jul-30 10:12 119 4 gusting 10 30.6
2015-Jul-30 10:07 109 3 gusting 10 30.0
2015-Jul-30 10:02 117 4 gusting 10 29.4
2015-Jul-30 09:57 099 5 gusting 10 29.4
2015-Jul-30 09:52 156 4 gusting 10 29.4
2015-Jul-30 09:47 147 5 gusting 10 29.4
2015-Jul-30 09:42 109 4 gusting 6 29.4
2015-Jul-30 09:37 153 2 gusting 6 30.0
2015-Jul-30 09:32 157 1 gusting 4 30.0
2015-Jul-30 09:27 097 1 gusting 4 30.0
2015-Jul-30 09:22 044 0 gusting 3 30.0
2015-Jul-30 09:17 325 0 gusting 3 30.0
2015-Jul-30 09:12 329 0 gusting 4 30.0
2015-Jul-30 09:07 116 0 gusting 4 30.0
2015-Jul-30 09:02 350 0 gusting 4 29.4
2015-Jul-30 08:57 337 0 gusting 4 28.9
2015-Jul-30 08:52 317 0 gusting 4 28.9
2015-Jul-30 08:47 192 0 gusting 4 28.9
2015-Jul-30 08:42 211 0 gusting 3 28.3
2015-Jul-30 08:37 238 0 gusting 3 28.3
2015-Jul-30 08:32 279 0 gusting 4 28.3
2015-Jul-30 08:27 307 0 gusting 4 28.3
2015-Jul-30 08:22 090 1 gusting 6 28.3
2015-Jul-30 08:17 031 0 gusting 6 27.8
2015-Jul-30 08:12 330 1 gusting 7 27.2
2015-Jul-30 08:07 277 2 gusting 7 27.2
2015-Jul-30 08:02 005 2 gusting 9 27.2
2015-Jul-30 07:57 012 3 gusting 9 27.2
2015-Jul-30 07:52 313 4 gusting 9 26.7
2015-Jul-30 07:47 330 4 gusting 9 26.7
2015-Jul-30 07:42 303 3 gusting 8 26.1
2015-Jul-30 07:37 344 3 gusting 8 26.1
2015-Jul-30 07:32 350 3 gusting 6 25.6
2015-Jul-30 07:27 337 3 gusting 6 25.6
2015-Jul-30 07:22 321 3 gusting 6 25.6
2015-Jul-30 07:17 315 3 gusting 6 25.6
2015-Jul-30 07:12 280 3 gusting 8 25.0
2015-Jul-30 07:07 327 3 gusting 8 25.0
2015-Jul-30 07:02 327 3 gusting 8 25.0
2015-Jul-30 06:57 338 3 gusting 8 24.4
2015-Jul-30 06:52 296 4 gusting 8 24.4
2015-Jul-30 06:47 297 3 gusting 8 24.4
2015-Jul-30 06:42 312 4 gusting 8 24.4
2015-Jul-30 06:37 302 4 gusting 8 24.4
2015-Jul-30 06:32 324 4 gusting 7 24.4
2015-Jul-30 06:27 294 4 gusting 7 23.9
2015-Jul-30 06:22 290 4 gusting 8 23.9
2015-Jul-30 06:17 291 4 gusting 8 23.9
2015-Jul-30 06:12 304 4 gusting 6 23.9
2015-Jul-30 06:07 287 4 gusting 6 23.9
2015-Jul-30 06:02 291 3 gusting 6 23.9
2015-Jul-30 05:57 290 2 gusting 6 23.9
2015-Jul-30 05:52 305 2 gusting 6 23.3
2015-Jul-30 05:47 309 3 gusting 6 23.3
2015-Jul-30 05:42 275 3 gusting 6 23.9
2015-Jul-30 05:37 283 3 gusting 6 23.9
2015-Jul-30 05:32 273 3 gusting 7 23.9
2015-Jul-30 05:27 287 3 gusting 7 23.9
2015-Jul-30 05:22 285 4 gusting 7 23.9
2015-Jul-30 05:17 300 4 gusting 7 24.4
2015-Jul-30 05:12 282 5 gusting 7 24.4
2015-Jul-30 05:07 282 5 gusting 7 24.4
2015-Jul-30 05:02 265 5 gusting 7 24.4
2015-Jul-30 04:57 270 5 gusting 7 24.4
2015-Jul-30 04:52 266 5 gusting 7 24.4
2015-Jul-30 04:47 267 5 gusting 7 24.4
2015-Jul-30 04:42 285 5 gusting 6 24.4
2015-Jul-30 04:37 294 4 gusting 6 24.4
2015-Jul-30 04:32 304 4 gusting 6 24.4
2015-Jul-30 04:27 288 3 gusting 6 23.9
2015-Jul-30 04:22 305 2 gusting 5 23.9
2015-Jul-30 04:17 299 2 gusting 5 23.9
2015-Jul-30 04:12 294 2 gusting 6 24.4
2015-Jul-30 04:07 308 1 gusting 6 25.0
2015-Jul-30 04:02 321 2 gusting 7 25.0
2015-Jul-30 03:57 280 4 gusting 7 25.6
2015-Jul-30 03:52 260 5 gusting 8 25.6
2015-Jul-30 03:47 275 4 gusting 8 25.6
2015-Jul-30 03:42 254 4 gusting 8 25.6
2015-Jul-30 03:37 267 6 gusting 8 25.6
2015-Jul-30 03:32 270 6 gusting 7 26.1
2015-Jul-30 03:27 267 5 gusting 7 26.1
2015-Jul-30 03:22 271 5 gusting 7 26.1
2015-Jul-30 03:17 267 5 gusting 7 26.7
2015-Jul-30 03:12 269 3 gusting 9 26.7
2015-Jul-30 03:07 250 4 gusting 9 26.7
2015-Jul-30 03:02 252 4 gusting 7 26.7
2015-Jul-30 02:57 298 4 gusting 7 26.7
2015-Jul-30 02:52 286 3 gusting 6 27.2
2015-Jul-30 02:47 273 2 gusting 6 27.2
2015-Jul-30 02:42 266 3 gusting 6 27.2
2015-Jul-30 02:37 288 4 gusting 6 27.2
2015-Jul-30 02:32 253 4 gusting 6 27.8
2015-Jul-30 02:27 289 4 gusting 6 27.8
2015-Jul-30 02:22 254 4 gusting 6 27.8
2015-Jul-30 02:17 267 4 gusting 6 27.8
2015-Jul-30 02:12 266 4 gusting 6 27.8
2015-Jul-30 02:07 265 4 gusting 6 27.8
2015-Jul-30 02:02 285 4 gusting 6 27.8
2015-Jul-30 01:57 294 4 gusting 6 27.8
2015-Jul-30 01:52 276 4 gusting 9 27.8
2015-Jul-30 01:47 300 3 gusting 9 27.8
2015-Jul-30 01:42 315 4 gusting 9 27.8
2015-Jul-30 01:37 297 6 gusting 9 28.3
2015-Jul-30 01:32 304 6 gusting 9 28.3
2015-Jul-30 01:27 284 6 gusting 9 28.3
2015-Jul-30 01:22 277 6 gusting 9 28.3
2015-Jul-30 01:17 280 6 gusting 9 28.3
2015-Jul-30 01:12 276 6 gusting 10 28.3
2015-Jul-30 01:07 298 6 gusting 10 28.9
2015-Jul-30 01:02 275 6 gusting 10 28.9
2015-Jul-30 00:57 281 6 gusting 10 28.9
2015-Jul-30 00:52 275 6 gusting 10 28.9
2015-Jul-30 00:47 269 6 gusting 10 28.9
2015-Jul-30 00:42 277 7 gusting 10 29.4
2015-Jul-30 00:37 284 6 gusting 10 29.4
2015-Jul-30 00:32 274 6 gusting 9 29.4
2015-Jul-30 00:27 287 6 gusting 9 29.4
2015-Jul-30 00:22 284 6 gusting 8 29.4
2015-Jul-30 00:17 273 6 gusting 7 29.4
2015-Jul-30 00:12 271 5 gusting 7 29.4
2015-Jul-30 00:07 288 4 gusting 7 29.4
2015-Jul-30 00:02 302 3 gusting 7 29.4
2015-Jul-29 23:57 302 3 gusting 7 30.0
2015-Jul-29 23:52 309 3 gusting 7 30.0
2015-Jul-29 23:47 298 4 gusting 7 30.0
2015-Jul-29 23:42 291 4 gusting 6 30.0
2015-Jul-29 23:37 315 3 gusting 6 30.0
2015-Jul-29 23:32 300 3 gusting 6 30.0
2015-Jul-29 23:27 278 2 gusting 6 30.6
2015-Jul-29 23:22 303 2 gusting 7 30.6
2015-Jul-29 23:17 300 2 gusting 7 30.6
2015-Jul-29 23:12 309 3 gusting 9 30.6
2015-Jul-29 23:07 271 5 gusting 9 31.1
2015-Jul-29 23:02 297 6 gusting 8 31.1
2015-Jul-29 22:57 267 4 gusting 8 31.1
2015-Jul-29 22:52 286 3 gusting 8 31.1
2015-Jul-29 22:47 313 4 gusting 8 31.7
2015-Jul-29 22:42 267 5 gusting 8 31.7
2015-Jul-29 22:37 273 5 gusting 8 31.7
2015-Jul-29 22:32 263 5 gusting 9 31.7
2015-Jul-29 22:27 274 5 gusting 9 31.7
2015-Jul-29 22:22 279 6 gusting 9 31.7
2015-Jul-29 22:17 278 6 gusting 9 32.2
2015-Jul-29 22:12 268 6 gusting 7 32.2
2015-Jul-29 22:07 268 5 gusting 7 32.2
2015-Jul-29 22:02 250 3 gusting 7 32.2
2015-Jul-29 21:57 298 3 gusting 7 32.2
2015-Jul-29 21:52 264 4 gusting 8 32.2
2015-Jul-29 21:47 308 5 gusting 8 32.8
2015-Jul-29 21:42 281 6 gusting 8 32.8
2015-Jul-29 21:37 275 6 gusting 8 32.8
2015-Jul-29 21:32 272 6 gusting 10 32.8
2015-Jul-29 21:27 284 6 gusting 10 33.3
2015-Jul-29 21:22 250 6 gusting 10 33.3
2015-Jul-29 21:17 281 6 gusting 10 33.3
2015-Jul-29 21:12 277 6 gusting 10 33.3
2015-Jul-29 21:07 277 6 gusting 10 33.3
2015-Jul-29 21:02 265 6 gusting 10 33.3
2015-Jul-29 20:57 278 6 gusting 10 33.3
2015-Jul-29 20:52 256 6 gusting 12 33.3
2015-Jul-29 20:47 248 5 gusting 12 33.3
2015-Jul-29 20:42 263 5 gusting 12 33.3
2015-Jul-29 20:37 237 5 gusting 12 33.3
2015-Jul-29 20:32 207 5 gusting 13 33.3
2015-Jul-29 20:27 274 5 gusting 13 33.3
2015-Jul-29 20:22 237 6 gusting 16 33.3
2015-Jul-29 20:17 256 6 gusting 16 33.3
2015-Jul-29 20:12 212 8 gusting 18 33.3
2015-Jul-29 20:07 242 9 gusting 18 33.3
2015-Jul-29 20:02 257 11 gusting 17 33.3
2015-Jul-29 19:57 255 10 gusting 17 33.9
2015-Jul-29 19:52 224 9 gusting 17 34.4
2015-Jul-29 19:47 225 10 gusting 17 34.4
2015-Jul-29 19:42 229 9 gusting 17 34.4
2015-Jul-29 19:37 229 8 gusting 17 35.0
2015-Jul-29 19:32 229 9 gusting 18 35.0
2015-Jul-29 19:27 216 10 gusting 18 35.6
2015-Jul-29 19:22 220 9 gusting 18 35.6
2015-Jul-29 19:17 196 9 gusting 18 36.1
2015-Jul-29 19:12 224 9 gusting 17 36.1
2015-Jul-29 19:07 246 10 gusting 17 36.7
2015-Jul-29 19:02 223 8 gusting 17 36.7
2015-Jul-29 18:57 225 8 gusting 17 37.2
2015-Jul-29 18:52 223 9 gusting 17 37.2
2015-Jul-29 18:47 214 9 gusting 17 37.2
2015-Jul-29 18:42 273 9 gusting 15 37.8
2015-Jul-29 18:37 205 7 gusting 15 37.8
2015-Jul-29 18:32 226 7 gusting 15 37.8
2015-Jul-29 18:27 223 8 gusting 15 38.3
2015-Jul-29 18:22 207 8 gusting 16 38.3
2015-Jul-29 18:17 234 7 gusting 16 38.3
2015-Jul-29 18:12 211 6 gusting 15 38.9
2015-Jul-29 18:07 213 6 gusting 15 38.9
2015-Jul-29 18:02 269 6 gusting 14 39.4
2015-Jul-29 17:57 244 6 gusting 14 39.4
2015-Jul-29 17:52 280 6 gusting 14 39.4
2015-Jul-29 17:47 237 6 gusting 14 39.4
2015-Jul-29 17:42 240 6 gusting 14 39.4
2015-Jul-29 17:37 246 7 gusting 14 39.4
2015-Jul-29 17:32 217 6 gusting 14 39.4
2015-Jul-29 17:27 238 6 gusting 14 39.4
2015-Jul-29 17:22 217 6 gusting 14 39.4
2015-Jul-29 17:17 252 7 gusting 14 39.4
2015-Jul-29 17:12 239 6 gusting 13 39.4
2015-Jul-29 17:07 236 6 gusting 13 39.4
2015-Jul-29 17:02 273 5 gusting 13 38.9
2015-Jul-29 16:57 262 6 gusting 13 38.3
2015-Jul-29 16:52 211 6 gusting 13 38.3
2015-Jul-29 16:47 173 7 gusting 13 37.8
2015-Jul-29 16:42 127 8 gusting 13 37.8
2015-Jul-29 16:37 153 7 gusting 13 37.8
2015-Jul-29 16:32 184 7 gusting 15 37.8
2015-Jul-29 16:27 154 7 gusting 15 37.8
2015-Jul-29 16:22 197 8 gusting 16 37.8
2015-Jul-29 16:17 192 8 gusting 16 37.8
2015-Jul-29 16:12 162 9 gusting 16 37.2
2015-Jul-29 16:07 181 9 gusting 16 37.2
2015-Jul-29 16:02 153 10 gusting 19 37.2
2015-Jul-29 15:57 182 9 gusting 19 37.2
2015-Jul-29 15:52 186 9 gusting 19 37.8
2015-Jul-29 15:47 182 10 gusting 19 37.8
2015-Jul-29 15:42 190 8 gusting 14 37.8
2015-Jul-29 15:37 157 7 gusting 14 38.3
2015-Jul-29 15:32 189 6 gusting 18 37.8
2015-Jul-29 15:27 156 7 gusting 18 37.8
2015-Jul-29 15:22 163 9 gusting 16 37.2
2015-Jul-29 15:17 169 9 gusting 16 37.8
2015-Jul-29 15:12 182 6 gusting 19 38.3
2015-Jul-29 15:07 195 4 gusting 19 38.9
2015-Jul-29 15:02 215 3 gusting 10 38.9
2015-Jul-29 14:57 288 2 gusting 10 38.9
2015-Jul-29 14:52 348 2 gusting 8 38.3
2015-Jul-29 14:47 243 3 gusting 8 38.3
2015-Jul-29 14:42 163 3 gusting 13 38.3
2015-Jul-29 14:37 256 2 gusting 13 38.3
2015-Jul-29 14:32 219 3 gusting 13 38.3
2015-Jul-29 14:27 196 6 gusting 13 38.3
2015-Jul-29 14:22 235 6 gusting 11 38.3
2015-Jul-29 14:17 175 5 gusting 11 38.3
2015-Jul-29 14:12 183 4 gusting 15 37.8
2015-Jul-29 14:07 150 6 gusting 15 37.8
2015-Jul-29 14:02 279 6 gusting 12 37.8
2015-Jul-29 13:57 209 6 gusting 12 37.8
2015-Jul-29 13:52 213 6 gusting 13 37.2
2015-Jul-29 13:47 241 6 gusting 13 37.2
2015-Jul-29 13:42 129 6 gusting 9 37.2
2015-Jul-29 13:37 225 6 gusting 9 37.2
2015-Jul-29 13:32 152 4 gusting 12 37.2
2015-Jul-29 13:27 219 4 gusting 12 37.2
2015-Jul-29 13:22 213 5 gusting 11 36.7
2015-Jul-29 13:17 276 5 gusting 11 36.7
2015-Jul-29 13:12 258 5 gusting 11 36.1
2015-Jul-29 13:07 226 6 gusting 11 36.1
2015-Jul-29 13:02 235 4 gusting 8 36.1
2015-Jul-29 12:57 234 3 gusting 8 35.6
2015-Jul-29 12:52 196 4 gusting 12 35.6
2015-Jul-29 12:47 210 5 gusting 12 35.6
2015-Jul-29 12:42 241 5 gusting 11 35.6
2015-Jul-29 12:37 153 4 gusting 11 35.0
2015-Jul-29 12:32 171 5 gusting 11 34.4
2015-Jul-29 12:27 183 5 gusting 11 34.4
2015-Jul-29 12:22 182 4 gusting 10 34.4
2015-Jul-29 12:17 204 3 gusting 10 34.4
2015-Jul-29 12:12 225 3 gusting 8 34.4
2015-Jul-29 12:07 192 4 gusting 8 33.9
2015-Jul-29 12:02 206 4 gusting 8 33.9
2015-Jul-29 11:57 170 4 gusting 8 33.9
2015-Jul-29 11:52 162 3 gusting 10 33.9
2015-Jul-29 11:47 246 3 gusting 10 33.3
2015-Jul-29 11:42 148 4 gusting 10 33.3
2015-Jul-29 11:37 191 4 gusting 10 33.3
2015-Jul-29 11:32 140 4 gusting 10 33.3
2015-Jul-29 11:27 175 4 gusting 10 32.8
2015-Jul-29 11:22 179 4 gusting 11 32.8
2015-Jul-29 11:17 146 5 gusting 11 32.8
2015-Jul-29 11:12 155 5 gusting 10 32.8
2015-Jul-29 11:07 198 3 gusting 10 32.8
2015-Jul-29 11:02 205 5 gusting 11 32.2
2015-Jul-29 10:57 141 6 gusting 11 32.2
2015-Jul-29 10:52 112 6 gusting 10 32.2
2015-Jul-29 10:47 142 4 gusting 10 32.2
2015-Jul-29 10:42 123 3 gusting 12 32.2
2015-Jul-29 10:37 128 4 gusting 12 31.7
2015-Jul-29 10:32 165 4 gusting 7 31.7
2015-Jul-29 10:27 146 3 gusting 7 31.7
2015-Jul-29 10:22 106 2 gusting 7 31.7
2015-Jul-29 10:17 105 2 gusting 7 31.7
2015-Jul-29 10:12 159 2 gusting 6 31.7
2015-Jul-29 10:07 125 2 gusting 6 31.1
2015-Jul-29 10:02 167 2 gusting 6 31.1
2015-Jul-29 09:57 161 3 gusting 6 30.6
2015-Jul-29 09:52 109 3 gusting 6 30.6
2015-Jul-29 09:47 143 2 gusting 6 30.6
2015-Jul-29 09:42 084 2 gusting 6 30.0
2015-Jul-29 09:37 084 3 gusting 6 30.0
2015-Jul-29 09:32 080 3 gusting 6 30.0
2015-Jul-29 09:27 111 2 gusting 6 30.0
2015-Jul-29 09:22 115 2 gusting 6 29.4
2015-Jul-29 09:17 130 2 gusting 6 29.4
2015-Jul-29 09:12 203 3 gusting 5 28.9
2015-Jul-29 09:07 121 2 gusting 5 28.9
2015-Jul-29 09:02 130 1 gusting 5 28.9